sat.trackr.live / text

‹ back to catalog

STARLINK-11648 [DTC]

NORAD 63313 · 2025-057G

PAYLOAD ACTIVE UNKNOWN

§ Identity

Operator
Country
US
Launch date
2025-03-18
Launch site
AFETR
Launch vehicle
Mass (kg)
RCS (m²)

Purposes: comms

External: N2YO · Heavens-Above · Gunter

§ Orbital elements

Epoch: 2026-09-20T22:36:50.524416Z

Period
91.67 min
Inclination
42.9983°
Eccentricity
0.0002659
Mean motion
15.70900720 rev/d
Perigee alt
354.5 km
Apogee alt
358.1 km
Semi-major
6,734.5 km
B*
8.4160e-4
RAAN
167.8023°
Arg perigee
213.2616°
Mean anomaly
146.8085°
Rev number
8,788

§ Raw data

STARLINK-11648 [DTC]1 63313U 25057G   26263.94225144  .00109259  00000+0  84160-3 0  99922 63313  42.9983 167.8023 0002659 213.2616 146.8085 15.70900720 87887

JSON: /api/v1/satellites/63313 · /tle

For live sub-satellite position, see the globe view (requires WebGL).

§ Visibility from observer

Set your observer location to see the next 7 days of passes ≥ 10°. The values pass through the URL so the page stays shareable.

No JS? Fill the form by hand. The geolocation button needs JavaScript.